Radiation Dose measured at exhaust stack monitor of Miscellaneous Solid Waste Incinerator Building/Incinerator raregas monitor
Date,Time,Incinerator Gas Monitor(cps),Wind Direction,Wind Velocity(m/s)
2023/12/27,00:00,1.5,northwest,3.0
2023/12/27,00:10,1.5,north-northwest,3.5
2023/12/27,00:20,1.5,north-northwest,2.1
2023/12/27,00:30,1.5,north-northwest,2.0
2023/12/27,00:40,1.5,northwest,1.1
2023/12/27,00:50,1.6,northwest,2.0
2023/12/27,01:00,1.4,north-northwest,3.2
2023/12/27,01:10,1.6,north-northwest,1.9
2023/12/27,01:20,1.5,north-northwest,3.1
2023/12/27,01:30,1.5,north-northwest,2.7
2023/12/27,01:40,1.4,north-northwest,2.3
2023/12/27,01:50,1.5,north,2.5
2023/12/27,02:00,1.5,north,2.3
2023/12/27,02:10,1.5,north,3.0
2023/12/27,02:20,1.5,north-northwest,3.6
2023/12/27,02:30,1.5,north-northwest,2.7
2023/12/27,02:40,1.5,north-northwest,2.7
2023/12/27,02:50,1.5,north-northwest,2.1
2023/12/27,03:00,1.5,north-northwest,2.9
2023/12/27,03:10,1.5,north-northwest,3.2
2023/12/27,03:20,1.5,north-northwest,3.4
2023/12/27,03:30,1.4,north-northwest,2.6
2023/12/27,03:40,1.5,north-northwest,2.9
2023/12/27,03:50,1.5,north-northwest,2.5
2023/12/27,04:00,1.4,northwest,1.8
2023/12/27,04:10,1.4,north-northwest,2.3
2023/12/27,04:20,1.5,north-northwest,2.7
2023/12/27,04:30,1.5,north-northwest,2.8
2023/12/27,04:40,1.5,north-northwest,3.3
2023/12/27,04:50,1.4,north-northwest,3.3
2023/12/27,05:00,1.3,north-northwest,2.8
2023/12/27,05:10,1.5,north-northwest,2.6
2023/12/27,05:20,1.5,north-northwest,2.4
2023/12/27,05:30,1.5,northwest,2.3
2023/12/27,05:40,1.4,north-northwest,2.3
2023/12/27,05:50,1.5,north-northwest,3.0
2023/12/27,06:00,1.3,north-northwest,2.8
2023/12/27,06:10,1.5,north-northwest,2.7
2023/12/27,06:20,1.5,northwest,2.2
2023/12/27,06:30,1.5,northwest,1.6
2023/12/27,06:40,1.5,north-northwest,2.2
2023/12/27,06:50,1.5,north-northwest,1.6
2023/12/27,07:00,1.4,west-northwest,1.9
2023/12/27,07:10,1.5,northwest,1.5
2023/12/27,07:20,1.4,northwest,2.1
2023/12/27,07:30,1.5,north-northwest,2.1
2023/12/27,07:40,1.5,north-northwest,2.1
2023/12/27,07:50,1.5,northwest,1.7
2023/12/27,08:00,1.6,north-northwest,2.1
2023/12/27,08:10,1.4,north-northwest,2.5
2023/12/27,08:20,1.5,north-northwest,2.6
2023/12/27,08:30,1.5,north-northwest,3.3
2023/12/27,08:40,1.5,north-northwest,3.3
2023/12/27,08:50,1.4,north-northwest,3.9
2023/12/27,09:00,1.5,north-northwest,3.5
2023/12/27,09:10,1.6,north,4.2
2023/12/27,09:20,1.4,north,3.2
2023/12/27,09:30,1.5,north-northwest,2.6
2023/12/27,09:40,1.5,north-northwest,3.6
2023/12/27,09:50,1.5,north-northwest,3.5
2023/12/27,10:00,1.5,north,3.7
2023/12/27,10:10,1.4,north,3.1
2023/12/27,10:20,1.6,north,4.2
2023/12/27,10:30,1.4,north-northwest,3.6
2023/12/27,10:40,1.6,north,3.6
2023/12/27,10:50,1.5,north,4.2
2023/12/27,11:00,1.6,north,3.8
2023/12/27,11:10,1.5,north-northwest,2.5
2023/12/27,11:20,1.4,north,2.9
2023/12/27,11:30,1.4,north,2.7
2023/12/27,11:40,1.4,north,2.2
2023/12/27,11:50,1.5,north-northeast,2.0
2023/12/27,12:00,1.4,north,2.0
2023/12/27,12:10,1.5,north-northwest,2.9
2023/12/27,12:20,1.6,northwest,1.5
2023/12/27,12:30,1.5,northwest,1.2
2023/12/27,12:40,1.5,west-northwest,2.6
2023/12/27,12:50,1.4,west-northwest,2.5
2023/12/27,13:00,1.5,northwest,2.4
2023/12/27,13:10,1.5,northwest,2.2
2023/12/27,13:20,1.5,northwest,2.5
2023/12/27,13:30,1.5,west-northwest,2.6
2023/12/27,13:40,1.5,west-northwest,1.2
2023/12/27,13:50,1.6,west-northwest,2.1
2023/12/27,14:00,1.5,northwest,1.8
2023/12/27,14:10,1.5,north-northwest,1.6
2023/12/27,14:20,1.5,north-northwest,2.5
2023/12/27,14:30,1.5,northwest,1.7
2023/12/27,14:40,1.5,northwest,2.4
2023/12/27,14:50,1.6,northwest,3.0
2023/12/27,15:00,1.4,northwest,2.2
2023/12/27,15:10,1.5,northwest,2.3
2023/12/27,15:20,1.5,northwest,1.7
2023/12/27,15:30,1.5,west-northwest,2.0
2023/12/27,15:40,1.5,west-northwest,1.6
2023/12/27,15:50,1.4,west-northwest,1.5
2023/12/27,16:00,1.3,west-northwest,1.2
2023/12/27,16:10,1.5,west-northwest,1.1
2023/12/27,16:20,1.5,west,0.6
2023/12/27,16:30,1.5,west,0.7
2023/12/27,16:40,1.5,west,1.2
2023/12/27,16:50,1.5,west-northwest,1.0
2023/12/27,17:00,1.5,west,0.8
2023/12/27,17:10,1.5,west-northwest,0.9
2023/12/27,17:20,1.5,west,1.0
2023/12/27,17:30,1.5,west-northwest,1.5
2023/12/27,17:40,1.4,west-northwest,2.0
2023/12/27,17:50,1.4,northwest,1.3
2023/12/27,18:00,1.5,west-northwest,1.7
2023/12/27,18:10,1.6,northwest,0.9
2023/12/27,18:20,1.5,west-northwest,1.1
2023/12/27,18:30,1.5,west-northwest,1.7
2023/12/27,18:40,1.4,west-northwest,0.9
2023/12/27,18:50,1.4,west-northwest,1.8
2023/12/27,19:00,1.5,west-northwest,1.4
2023/12/27,19:10,1.5,west-northwest,1.1
2023/12/27,19:20,1.5,northwest,1.2
2023/12/27,19:30,1.5,north-northwest,0.8
2023/12/27,19:40,1.5,northwest,1.3
2023/12/27,19:50,1.5,northwest,1.2
2023/12/27,20:00,1.5,north-northwest,1.5
2023/12/27,20:10,1.4,north,1.1
2023/12/27,20:20,1.5,north,1.4
2023/12/27,20:30,1.5,north,1.5
2023/12/27,20:40,1.6,north,1.4
2023/12/27,20:50,1.5,north-northwest,1.4
2023/12/27,21:00,1.5,north-northwest,2.0
2023/12/27,21:10,1.5,north-northwest,2.5
2023/12/27,21:20,1.4,north-northwest,2.7
2023/12/27,21:30,1.6,north-northwest,2.6
2023/12/27,21:40,1.5,north-northwest,2.5
2023/12/27,21:50,1.5,north,2.0
2023/12/27,22:00,1.4,north,2.3
2023/12/27,22:10,1.5,north,3.2
2023/12/27,22:20,1.4,north-northwest,3.0
2023/12/27,22:30,1.4,northwest,2.2
2023/12/27,22:40,1.4,northwest,2.4
2023/12/27,22:50,1.5,northwest,2.4
2023/12/27,23:00,1.4,northwest,2.6
2023/12/27,23:10,1.6,north-northwest,2.5
2023/12/27,23:20,1.5,north-northwest,2.5
2023/12/27,23:30,1.6,northwest,3.1
2023/12/27,23:40,1.4,northwest,3.4
2023/12/27,23:50,1.4,northwest,3.1
